Location: Unspecified
(0.0000°N, 0.0000°E)
Time: 00:29:42
(UTC+00:00)

A-11 Canister half - All Passes

Search period start: 01 February 2015 00:00
Search period end: 11 February 2015 00:00
Orbit: 1526 x 1683 km, 47.3° (Epoch: 30 January)

Date Brightness Start Highest point End Pass type
(mag) Time Alt. Az. Time Alt. Az. Time Alt. Az.
01 Feb - 01:45:14 10° SSE 01:49:24 14° SE 01:54:14 10° ESE visible
01 Feb - 03:45:36 10° SW 03:55:09 78° SE 04:04:28 10° NE visible
01 Feb - 05:53:41 10° W 06:00:22 20° NW 06:06:31 10° N daylight
01 Feb - 14:32:40 10° NNW 14:41:11 35° NE 14:50:08 10° ESE daylight
01 Feb - 16:36:43 10° NW 16:46:20 53° SW 16:56:05 10° SSE daylight
02 Feb - 01:24:18 10° SSE 01:27:44 13° SE 01:31:57 10° ESE visible
02 Feb - 03:24:04 10° SSW 03:33:37 73° SE 03:42:55 10° NE visible
02 Feb - 05:31:45 10° W 05:38:46 22° NW 05:45:17 10° N visible
02 Feb - 14:11:18 10° N 14:19:35 32° NE 14:28:20 10° ESE daylight
02 Feb - 16:15:03 10° NW 16:24:44 56° SW 16:34:35 10° SSE daylight
03 Feb - 01:03:33 10° SSE 01:06:05 12° SE 01:09:27 10° ESE visible
03 Feb - 03:02:34 10° SSW 03:12:05 68° SE 03:21:21 10° NE visible
03 Feb - 05:09:51 10° W 05:17:11 24° NW 05:24:03 10° N visible
03 Feb - 13:49:58 10° N 13:57:59 30° NE 14:06:30 10° ESE daylight
03 Feb - 15:53:26 10° NW 16:03:09 60° SW 16:13:05 10° SSE daylight
03 Feb - 18:08:22 10° SW 18:09:33 10° SW 18:09:42 10° SW daylight
04 Feb - 00:43:15 10° SSE 00:44:25 10° SE 00:46:29 10° SE visible
04 Feb - 02:41:04 10° SSW 02:50:33 64° SE 02:59:47 10° NE visible
04 Feb - 04:47:59 10° WSW 04:55:36 26° NW 05:02:46 10° N visible
04 Feb - 13:28:39 10° N 13:36:23 28° NE 13:44:39 10° ESE daylight
04 Feb - 15:31:49 10° NW 15:41:35 64° SW 15:51:34 10° SSE daylight
04 Feb - 17:44:39 10° WSW 17:47:51 11° SW 17:50:06 10° SSW daylight
05 Feb - 02:19:33 10° SSW 02:29:00 60° SE 02:38:12 10° NE visible
05 Feb - 04:26:09 10° WSW 04:34:02 28° NW 04:41:28 10° N visible
05 Feb - 13:07:22 10° N 13:14:47 26° NE 13:22:46 10° E daylight
05 Feb - 15:10:14 10° NW 15:20:00 69° SW 15:30:03 10° SSE daylight
05 Feb - 17:21:58 10° WSW 17:26:09 12° SW 17:29:29 10° SSW daylight
06 Feb - 01:58:04 10° SSW 02:07:27 56° SE 02:16:35 10° NE visible
06 Feb - 04:04:20 10° WSW 04:12:27 30° NW 04:20:10 10° N visible
06 Feb - 12:46:05 10° N 12:53:10 24° NE 13:00:51 10° E daylight
06 Feb - 14:48:39 10° NW 14:58:26 73° SW 15:08:31 10° SSE daylight
06 Feb - 16:59:34 10° WSW 17:04:29 14° SW 17:08:36 10° SSW daylight
07 Feb - 01:36:36 10° SSW 01:45:54 52° SE 01:54:58 10° NE night (unlit)
07 Feb - 03:42:33 10° WSW 03:50:53 33° NW 03:58:50 10° N visible
07 Feb - 12:24:51 10° N 12:31:33 22° NE 12:38:54 10° E daylight
07 Feb - 14:27:05 10° NW 14:36:52 78° SW 14:46:58 10° SE daylight
07 Feb - 16:37:18 10° WSW 16:42:48 15° SW 16:47:35 10° SSW daylight
08 Feb - 01:15:07 10° SSW 01:24:20 49° SE 01:33:21 10° ENE night (unlit)
08 Feb - 03:20:46 10° WSW 03:29:19 35° NW 03:37:29 10° NNE visible
08 Feb - 12:03:38 10° N 12:09:56 20° NE 12:16:55 10° E daylight
08 Feb - 14:05:31 10° NW 14:15:18 83° SW 14:25:25 10° SE daylight
08 Feb - 16:15:09 10° W 16:21:08 16° SW 16:26:30 10° S daylight
09 Feb - 00:53:39 10° SSW 01:02:47 45° SE 01:11:42 10° ENE night (unlit)
09 Feb - 02:59:01 10° WSW 03:07:45 38° NW 03:16:07 10° NNE visible
09 Feb - 11:42:28 10° N 11:48:19 19° NE 11:54:53 10° E daylight
09 Feb - 13:43:59 10° NW 13:53:44 87° SW 14:03:50 10° SE daylight
09 Feb - 15:53:04 10° W 15:59:29 18° SW 16:05:20 10° S daylight
10 Feb - 00:32:13 10° SSW 00:41:12 42° SE 00:50:03 10° ENE night (unlit)
10 Feb - 02:37:17 10° WSW 02:46:13 41° NW 02:54:44 10° NNE visible
10 Feb - 11:21:21 10° N 11:26:41 17° NE 11:32:47 10° E daylight
10 Feb - 13:22:27 10° NW 13:32:10 88° NE 13:42:16 10° SE daylight
10 Feb - 15:31:02 10° W 15:37:49 19° SW 15:44:08 10° S daylight
